| time (UTC) | temp F | wind direction | speed MPH | gust MPH | rain 1hr in | rain 24hr in | rain mn in | humidity % | barometer mb |
| 20260510103408 | 49 | 103 | 2.0 | 2.0 | 0.00 | 0.00 | 0.00 | 99 | 1009.4 |
| 20260510103354 | 49 | 230 | 0.0 | 0.0 | 0.00 | 0.12 | 0.00 | 95 | 1010.9 |
| 20260510102902 | 49 | 106 | 0.0 | 2.0 | 0.00 | 0.00 | 0.00 | 99 | 1009.3 |
| 20260510102853 | 49 | 230 | 0.0 | 0.0 | 0.00 | 0.12 | 0.00 | 96 | 1011.0 |
| 20260510102358 | 49 | 90 | 0.0 | 1.0 | 0.00 | 0.00 | 0.00 | 99 | 1009.1 |
| 20260510102352 | 49 | 230 | 0.0 | 0.0 | 0.00 | 0.12 | 0.00 | 96 | 1010.9 |
| 20260510102142 | 49 | 230 | 0.0 | 0.0 | 0.00 | 0.12 | 0.00 | 96 | 1010.9 |
| 20260510101856 | 49 | 66 | 1.0 | 2.0 | 0.00 | 0.00 | 0.00 | 99 | 1009.1 |
| 20260510101354 | 49 | 230 | 0.0 | 0.0 | 0.00 | 0.12 | 0.00 | 96 | 1010.8 |
| 20260510100854 | 49 | 230 | 0.0 | 0.0 | 0.00 | 0.12 | 0.00 | 95 | 1010.7 |
| 20260510100850 | 49 | 80 | 2.0 | 2.0 | 0.00 | 0.00 | 0.00 | 99 | 1008.8 |
| 20260510100709 | 49 | 230 | 0.0 | 0.0 | 0.00 | 0.12 | 0.00 | 96 | 1010.6 |
| 20260510100418 | 49 | 230 | 0.0 | 0.0 | 0.00 | 0.12 | 0.00 | 95 | 1010.6 |
| 20260510100348 | 49 | 106 | 2.0 | 2.0 | 0.00 | 0.00 | 0.00 | 99 | 1008.9 |
| 20260510095844 | 49 | 110 | 2.0 | 2.0 | 0.00 | 0.00 | 0.00 | 99 | 1008.8 |
| 20260510095351 | 49 | 230 | 0.0 | 0.0 | 0.00 | 0.12 | 0.00 | 95 | 1010.6 |
| 20260510095339 | 50 | 77 | 1.0 | 2.0 | 0.00 | 0.00 | 0.00 | 99 | 1008.8 |
| 20260510095122 | 49 | 230 | 0.0 | 0.0 | 0.00 | 0.12 | 0.00 | 96 | 1010.5 |
| 20260510094839 | 49 | 69 | 1.0 | 2.0 | 0.00 | 0.00 | 0.00 | 99 | 1008.9 |
| 20260510094346 | 49 | 230 | 0.0 | 0.0 | 0.00 | 0.12 | 0.00 | 95 | 1010.3 |
| 20260510094334 | 49 | 84 | 2.0 | 2.0 | 0.00 | 0.00 | 0.00 | 99 | 1008.4 |
| 20260510093844 | 49 | 230 | 0.0 | 0.0 | 0.00 | 0.12 | 0.00 | 95 | 1010.2 |
| 20260510093830 | 49 | 90 | 2.0 | 2.0 | 0.00 | 0.00 | 0.00 | 99 | 1008.2 |
| 20260510093345 | 49 | 230 | 0.0 | 0.0 | 0.00 | 0.12 | 0.00 | 96 | 1010.2 |
| 20260510093326 | 49 | 96 | 2.0 | 2.0 | 0.00 | 0.00 | 0.00 | 99 | 1008.5 |
| 20260510092842 | 50 | 230 | 0.0 | 0.0 | 0.00 | 0.12 | 0.00 | 96 | 1010.2 |
| 20260510092822 | 49 | 113 | 2.0 | 3.0 | 0.00 | 0.00 | 0.00 | 99 | 1008.2 |
| 20260510092626 | 50 | 230 | 0.0 | 0.0 | 0.00 | 0.12 | 0.00 | 96 | 1010.3 |
| 20260510092319 | 50 | 103 | 1.0 | 2.0 | 0.00 | 0.00 | 0.00 | 99 | 1008.6 |
| 20260510091837 | 50 | 230 | 0.0 | 0.0 | 0.00 | 0.12 | 0.00 | 96 | 1010.3 |
| 20260510091815 | 50 | 60 | 2.0 | 2.0 | 0.00 | 0.00 | 0.00 | 99 | 1008.6 |
| 20260510091338 | 50 | 230 | 0.0 | 0.0 | 0.00 | 0.12 | 0.00 | 96 | 1010.2 |
| 20260510091312 | 50 | 75 | 1.0 | 2.0 | 0.00 | 0.00 | 0.00 | 99 | 1008.4 |
| 20260510090838 | 50 | 230 | 0.0 | 0.0 | 0.00 | 0.12 | 0.00 | 96 | 1010.1 |
| 20260510090809 | 50 | 90 | 2.0 | 2.0 | 0.00 | 0.00 | 0.00 | 99 | 1008.3 |
| 20260510090335 | 50 | 230 | 0.0 | 0.0 | 0.00 | 0.12 | 0.00 | 96 | 1010.1 |
| 20260510090305 | 50 | 108 | 2.0 | 2.0 | 0.00 | 0.00 | 0.00 | 99 | 1008.4 |
| 20260510085836 | 50 | 232 | 0.0 | 0.0 | 0.00 | 0.12 | 0.00 | 96 | 1010.1 |
| 20260510085801 | 50 | 35 | 1.0 | 2.0 | 0.00 | 0.00 | 0.00 | 99 | 1008.4 |
| 20260510085336 | 50 | 230 | 0.0 | 0.0 | 0.00 | 0.12 | 0.00 | 96 | 1010.0 |
| 20260510085255 | 50 | 90 | 2.0 | 2.0 | 0.00 | 0.00 | 0.00 | 99 | 1008.3 |
| 20260510084834 | 50 | 230 | 0.0 | 0.0 | 0.00 | 0.12 | 0.00 | 96 | 1010.0 |
| 20260510084751 | 50 | 83 | 3.0 | 3.0 | 0.00 | 0.00 | 0.00 | 99 | 1008.4 |
| 20260510084334 | 50 | 230 | 0.0 | 0.0 | 0.00 | 0.12 | 0.00 | 95 | 1010.2 |
| 20260510084248 | 50 | 105 | 2.0 | 2.0 | 0.00 | 0.00 | 0.00 | 99 | 1008.5 |
| 20260510083836 | 50 | 232 | 0.0 | 0.0 | 0.00 | 0.12 | 0.00 | 95 | 1010.3 |
| 20260510083745 | 50 | 131 | 0.0 | 2.0 | 0.00 | 0.00 | 0.00 | 99 | 1008.7 |
| 20260510083619 | 50 | 232 | 0.0 | 0.0 | 0.00 | 0.12 | 0.00 | 95 | 1010.2 |
| 20260510083242 | 50 | 117 | 2.0 | 3.0 | 0.00 | 0.00 | 0.00 | 99 | 1008.6 |
| 20260510082834 | 50 | 170 | 0.0 | 3.0 | 0.00 | 0.12 | 0.00 | 95 | 1010.3 |
| 20260510082738 | 50 | 71 | 2.0 | 4.0 | 0.00 | 0.00 | 0.00 | 99 | 1008.3 |
| 20260510082336 | 50 | 243 | 0.0 | 3.0 | 0.00 | 0.12 | 0.00 | 96 | 1010.5 |
| 20260510082234 | 50 | 342 | 1.0 | 2.0 | 0.00 | 0.00 | 0.00 | 99 | 1008.7 |
| 20260510081835 | 50 | 95 | 1.0 | 6.0 | 0.00 | 0.12 | 0.00 | 96 | 1010.2 |
| 20260510081733 | 50 | 111 | 5.0 | 5.0 | 0.00 | 0.00 | 0.00 | 99 | 1008.6 |
| 20260510081342 | 50 | 94 | 2.0 | 6.0 | 0.00 | 0.12 | 0.00 | 96 | 1010.3 |
| 20260510081230 | 51 | 117 | 3.0 | 5.0 | 0.00 | 0.00 | 0.00 | 99 | 1008.4 |
| 20260510081121 | 50 | 86 | 2.0 | 4.0 | 0.00 | 0.12 | 0.00 | 96 | 1010.5 |
| 20260510080725 | 50 | 0 | 2.0 | 4.0 | 0.00 | 0.00 | 0.00 | 99 | 1009.1 |
| 20260510080330 | 49 | 108 | 2.0 | 6.0 | 0.00 | 0.12 | 0.00 | 96 | 1009.9 |
| 20260510080221 | 50 | 124 | 5.0 | 7.0 | 0.00 | 0.00 | 0.00 | 99 | 1008.3 |
| 20260510075830 | 49 | 286 | 2.0 | 7.0 | 0.00 | 0.12 | 0.00 | 96 | 1010.6 |
| 20260510075718 | 50 | 356 | 2.0 | 4.0 | 0.00 | 0.00 | 0.00 | 99 | 1008.6 |
| 20260510075610 | 48 | 103 | 3.0 | 9.0 | 0.00 | 0.12 | 0.00 | 95 | 1010.0 |
| 20260510075216 | 49 | 95 | 2.0 | 4.0 | 0.00 | 0.00 | 0.00 | 99 | 1008.8 |
| 20260510074829 | 47 | 94 | 2.0 | 9.0 | 0.00 | 0.12 | 0.00 | 95 | 1009.8 |
| 20260510074712 | 49 | 104 | 6.0 | 10.0 | 0.00 | 0.00 | 0.00 | 99 | 1008.0 |
| 20260510074614 | 47 | 281 | 1.0 | 9.0 | 0.00 | 0.12 | 0.00 | 94 | 1010.5 |
| 20260510074209 | 46 | 82 | 0.0 | 3.0 | 0.00 | 0.00 | 0.00 | 99 | 1008.1 |
| 20260510074111 | 47 | 78 | 0.0 | 0.0 | 0.00 | 0.12 | 0.00 | 95 | 1009.6 |
| 20260510073705 | 46 | 90 | 2.0 | 3.0 | 0.00 | 0.00 | 0.00 | 99 | 1007.8 |
| 20260510073322 | 47 | 78 | 0.0 | 0.0 | 0.00 | 0.12 | 0.00 | 95 | 1009.6 |
| 20260510073201 | 47 | 78 | 2.0 | 3.0 | 0.00 | 0.00 | 0.00 | 99 | 1007.8 |
| 20260510072825 | 47 | 78 | 0.0 | 0.0 | 0.00 | 0.12 | 0.00 | 95 | 1009.6 |
| 20260510072657 | 47 | 109 | 3.0 | 3.0 | 0.00 | 0.00 | 0.00 | 99 | 1008.1 |
| 20260510072322 | 47 | 78 | 0.0 | 0.0 | 0.00 | 0.12 | 0.00 | 95 | 1009.6 |
| 20260510072154 | 47 | 94 | 2.0 | 3.0 | 0.00 | 0.00 | 0.00 | 99 | 1008.0 |
| 20260510071819 | 47 | 78 | 0.0 | 0.0 | 0.00 | 0.12 | 0.00 | 94 | 1009.6 |
| 20260510071650 | 47 | 59 | 2.0 | 2.0 | 0.00 | 0.00 | 0.00 | 99 | 1008.0 |
| 20260510071317 | 47 | 78 | 0.0 | 0.0 | 0.00 | 0.12 | 0.00 | 94 | 1009.6 |
| 20260510071147 | 47 | 119 | 2.0 | 3.0 | 0.00 | 0.00 | 0.00 | 99 | 1008.0 |
| 20260510070846 | 47 | 78 | 0.0 | 0.0 | 0.00 | 0.12 | 0.00 | 94 | 1009.7 |
| 20260510070835 | 47 | 78 | 0.0 | 0.0 | 0.00 | 0.12 | 0.00 | 94 | 1009.7 |
| 20260510070645 | 47 | 81 | 0.0 | 2.0 | 0.00 | 0.00 | 0.00 | 99 | 1008.0 |
| 20260510070142 | 47 | 26 | 2.0 | 3.0 | 0.00 | 0.00 | 0.00 | 99 | 1008.2 |
| 20260510065815 | 47 | 78 | 0.0 | 0.0 | 0.00 | 0.12 | 0.00 | 94 | 1009.7 |
| 20260510065637 | 47 | 53 | 0.0 | 2.0 | 0.00 | 0.00 | 0.00 | 99 | 1008.0 |
| 20260510065306 | 47 | 78 | 0.0 | 0.0 | 0.00 | 0.12 | 0.00 | 94 | 1009.5 |
| 20260510065134 | 46 | 90 | 2.0 | 3.0 | 0.00 | 0.00 | 0.00 | 99 | 1007.8 |
| 20260510064755 | 47 | 78 | 0.0 | 0.0 | 0.00 | 0.12 | 0.00 | 94 | 1009.4 |
| 20260510064630 | 46 | 85 | 2.0 | 3.0 | 0.00 | 0.00 | 0.00 | 99 | 1007.6 |
| 20260510064254 | 47 | 78 | 0.0 | 0.0 | 0.00 | 0.12 | 0.00 | 94 | 1009.3 |
| 20260510064127 | 46 | 95 | 2.0 | 3.0 | 0.00 | 0.00 | 0.00 | 99 | 1007.6 |
| 20260510063753 | 47 | 78 | 0.0 | 0.0 | 0.00 | 0.12 | 0.00 | 94 | 1009.3 |
| 20260510063624 | 46 | 81 | 2.0 | 3.0 | 0.00 | 0.00 | 0.00 | 99 | 1007.6 |
| 20260510063250 | 47 | 78 | 0.0 | 0.0 | 0.00 | 0.12 | 0.00 | 94 | 1009.3 |
| 20260510063121 | 46 | 98 | 2.0 | 3.0 | 0.00 | 0.00 | 0.00 | 99 | 1007.9 |
| 20260510062751 | 47 | 78 | 0.0 | 0.0 | 0.00 | 0.12 | 0.00 | 94 | 1009.3 |
| 20260510062617 | 47 | 59 | 2.0 | 3.0 | 0.00 | 0.00 | 0.00 | 99 | 1007.8 |
| 20260510062248 | 47 | 78 | 0.0 | 0.0 | 0.00 | 0.12 | 0.00 | 94 | 1009.3 |
| 20260510062113 | 47 | 68 | 2.0 | 2.0 | 0.00 | 0.00 | 0.00 | 99 | 1007.7 |
| 20260510061744 | 47 | 78 | 0.0 | 0.0 | 0.00 | 0.12 | 0.00 | 94 | 1009.2 |
| 20260510061609 | 47 | 99 | 2.0 | 2.0 | 0.00 | 0.00 | 0.00 | 99 | 1007.7 |
| 20260510061244 | 47 | 78 | 0.0 | 0.0 | 0.00 | 0.12 | 0.00 | 94 | 1009.2 |
| 20260510061106 | 47 | 99 | 2.0 | 3.0 | 0.00 | 0.00 | 0.00 | 99 | 1007.4 |
| 20260510060733 | 47 | 78 | 0.0 | 0.0 | 0.00 | 0.12 | 0.00 | 94 | 1009.1 |
| 20260510060602 | 47 | 85 | 2.0 | 3.0 | 0.00 | 0.00 | 0.00 | 99 | 1007.6 |
| 20260510060219 | 47 | 78 | 0.0 | 0.0 | 0.00 | 0.12 | 0.00 | 94 | 1009.2 |
| 20260510060059 | 47 | 93 | 3.0 | 3.0 | 0.00 | 0.00 | 0.00 | 99 | 1007.5 |
| 20260510055711 | 47 | 78 | 0.0 | 0.0 | 0.00 | 0.12 | 0.00 | 94 | 1009.3 |
| 20260510055554 | 47 | 90 | 2.0 | 3.0 | 0.00 | 0.00 | 0.00 | 99 | 1007.9 |
| 20260510055210 | 47 | 78 | 0.0 | 0.0 | 0.00 | 0.12 | 0.00 | 94 | 1009.3 |
| 20260510055053 | 47 | 100 | 2.0 | 3.0 | 0.00 | 0.00 | 0.00 | 99 | 1007.8 |
| 20260510054710 | 47 | 78 | 0.0 | 0.0 | 0.00 | 0.12 | 0.00 | 94 | 1009.4 |
| 20260510054549 | 47 | 77 | 1.0 | 2.0 | 0.00 | 0.00 | 0.00 | 99 | 1007.8 |
| 20260510054208 | 47 | 78 | 0.0 | 0.0 | 0.00 | 0.12 | 0.00 | 94 | 1009.4 |
| 20260510054043 | 47 | 90 | 2.0 | 3.0 | 0.00 | 0.00 | 0.00 | 99 | 1008.0 |
| 20260510053706 | 47 | 78 | 0.0 | 0.0 | 0.00 | 0.12 | 0.00 | 94 | 1009.5 |
| 20260510053538 | 47 | 112 | 2.0 | 2.0 | 0.00 | 0.00 | 0.00 | 99 | 1007.8 |
| 20260510053205 | 47 | 78 | 0.0 | 0.0 | 0.00 | 0.12 | 0.00 | 94 | 1009.5 |
| 20260510053035 | 47 | 100 | 3.0 | 3.0 | 0.00 | 0.00 | 0.00 | 99 | 1007.9 |
| 20260510052946 | 48 | 78 | 0.0 | 0.0 | 0.00 | 0.12 | 0.00 | 93 | 1009.5 |
| 20260510052531 | 47 | 95 | 2.0 | 2.0 | 0.00 | 0.00 | 0.00 | 99 | 1007.8 |
| 20260510052149 | 48 | 78 | 0.0 | 0.0 | 0.00 | 0.12 | 0.00 | 94 | 1009.5 |
| 20260510052027 | 47 | 85 | 2.0 | 2.0 | 0.00 | 0.00 | 0.00 | 99 | 1008.2 |
| 20260510051927 | 48 | 78 | 0.0 | 0.0 | 0.00 | 0.12 | 0.00 | 94 | 1009.5 |
| 20260510051523 | 47 | 90 | 2.0 | 2.0 | 0.00 | 0.00 | 0.00 | 99 | 1008.0 |
| 20260510051129 | 48 | 78 | 0.0 | 0.0 | 0.00 | 0.12 | 0.00 | 93 | 1009.6 |
| 20260510051020 | 47 | 90 | 2.0 | 3.0 | 0.00 | 0.00 | 0.00 | 99 | 1007.8 |
| 20260510050621 | 48 | 78 | 0.0 | 0.0 | 0.00 | 0.12 | 0.00 | 93 | 1009.7 |
| 20260510050517 | 48 | 90 | 2.0 | 2.0 | 0.00 | 0.00 | 0.00 | 99 | 1007.9 |
| 20260510050407 | 48 | 78 | 0.0 | 0.0 | 0.00 | 0.12 | 0.00 | 93 | 1009.6 |
| 20260510050014 | 48 | 90 | 2.0 | 2.0 | 0.00 | 0.00 | 0.00 | 99 | 1008.0 |
| 20260510045621 | 48 | 78 | 0.0 | 0.0 | 0.00 | 0.12 | 0.00 | 93 | 1009.6 |
| 20260510045512 | 48 | 95 | 2.0 | 3.0 | 0.00 | 0.00 | 0.00 | 99 | 1007.9 |
| 20260510045120 | 48 | 78 | 0.0 | 0.0 | 0.00 | 0.12 | 0.00 | 93 | 1009.7 |
| 20260510045007 | 48 | 90 | 2.0 | 2.0 | 0.00 | 0.00 | 0.00 | 99 | 1008.1 |
| 20260510044858 | 48 | 78 | 0.0 | 0.0 | 0.00 | 0.12 | 0.00 | 93 | 1009.7 |
| 20260510044504 | 48 | 90 | 2.0 | 2.0 | 0.00 | 0.00 | 0.00 | 99 | 1008.0 |
| 20260510044118 | 48 | 78 | 0.0 | 0.0 | 0.00 | 0.12 | 0.00 | 93 | 1009.7 |
| 20260510044002 | 48 | 84 | 1.0 | 2.0 | 0.00 | 0.00 | 0.00 | 99 | 1008.1 |
| 20260510043617 | 48 | 78 | 0.0 | 0.0 | 0.00 | 0.12 | 0.00 | 93 | 1009.7 |
| 20260510043457 | 48 | 80 | 2.0 | 2.0 | 0.00 | 0.00 | 0.00 | 99 | 1007.9 |
| 20260510043114 | 49 | 78 | 0.0 | 0.0 | 0.00 | 0.12 | 0.00 | 93 | 1009.7 |
| 20260510042956 | 48 | 90 | 2.0 | 2.0 | 0.00 | 0.00 | 0.00 | 99 | 1008.2 |
| 20260510042613 | 49 | 78 | 0.0 | 0.0 | 0.00 | 0.12 | 0.00 | 93 | 1009.8 |
| 20260510042452 | 48 | 103 | 2.0 | 3.0 | 0.00 | 0.00 | 0.00 | 99 | 1008.2 |
| 20260510042102 | 49 | 78 | 0.0 | 0.0 | 0.00 | 0.12 | 0.00 | 93 | 1009.8 |
| 20260510041947 | 48 | 90 | 2.0 | 2.0 | 0.00 | 0.00 | 0.00 | 99 | 1008.2 |
| 20260510041841 | 49 | 78 | 0.0 | 0.0 | 0.00 | 0.12 | 0.00 | 93 | 1009.8 |
| 20260510041444 | 48 | 85 | 2.0 | 2.0 | 0.00 | 0.00 | 0.00 | 99 | 1008.2 |
| 20260510041107 | 49 | 78 | 0.0 | 0.0 | 0.00 | 0.12 | 0.00 | 93 | 1009.8 |
| 20260510040946 | 49 | 78 | 0.0 | 0.0 | 0.00 | 0.12 | 0.00 | 93 | 1009.9 |
| 20260510040942 | 48 | 90 | 2.0 | 2.0 | 0.00 | 0.00 | 0.00 | 99 | 1008.2 |
| 20260510040438 | 49 | 101 | 2.0 | 2.0 | 0.00 | 0.00 | 0.00 | 99 | 1008.3 |
| 20260510035934 | 49 | 98 | 2.0 | 2.0 | 0.00 | 0.15 | 0.15 | 99 | 1008.2 |
| 20260510035835 | 49 | 78 | 0.0 | 0.0 | 0.00 | 0.12 | 0.12 | 93 | 1009.9 |
| 20260510035430 | 49 | 77 | 1.0 | 2.0 | 0.00 | 0.15 | 0.15 | 99 | 1008.4 |
| 20260510035050 | 49 | 78 | 0.0 | 0.0 | 0.00 | 0.12 | 0.12 | 93 | 1009.9 |
| 20260510034925 | 49 | 90 | 2.0 | 2.0 | 0.00 | 0.15 | 0.15 | 99 | 1008.4 |
| 20260510034547 | 49 | 78 | 0.0 | 0.0 | 0.00 | 0.12 | 0.12 | 93 | 1009.8 |
| 20260510034424 | 49 | 90 | 2.0 | 2.0 | 0.00 | 0.15 | 0.15 | 99 | 1008.4 |
| 20260510034047 | 49 | 78 | 0.0 | 0.0 | 0.00 | 0.12 | 0.12 | 93 | 1009.8 |
| 20260510033919 | 49 | 78 | 1.0 | 2.0 | 0.00 | 0.15 | 0.15 | 99 | 1008.3 |
| 20260510033542 | 49 | 78 | 0.0 | 0.0 | 0.00 | 0.12 | 0.12 | 93 | 1009.8 |
| 20260510033416 | 49 | 80 | 2.0 | 2.0 | 0.00 | 0.15 | 0.15 | 99 | 1008.0 |
| 20260510033039 | 50 | 78 | 0.0 | 0.0 | 0.00 | 0.12 | 0.12 | 92 | 1009.9 |
| 20260510032913 | 49 | 120 | 2.0 | 2.0 | 0.00 | 0.15 | 0.15 | 99 | 1008.3 |
| 20260510032538 | 50 | 78 | 0.0 | 0.0 | 0.00 | 0.12 | 0.12 | 93 | 1009.8 |
| 20260510032410 | 49 | 102 | 1.0 | 2.0 | 0.00 | 0.15 | 0.15 | 99 | 1008.3 |
| 20260510032036 | 50 | 78 | 0.0 | 0.0 | 0.00 | 0.12 | 0.12 | 93 | 1009.8 |
| 20260510031905 | 49 | 90 | 2.0 | 2.0 | 0.00 | 0.15 | 0.15 | 99 | 1008.2 |
| 20260510031533 | 50 | 78 | 0.0 | 0.0 | 0.00 | 0.12 | 0.12 | 93 | 1009.7 |
| 20260510031400 | 50 | 90 | 2.0 | 2.0 | 0.00 | 0.15 | 0.15 | 99 | 1008.0 |
| 20260510031032 | 50 | 78 | 0.0 | 0.0 | 0.00 | 0.12 | 0.12 | 92 | 1009.7 |
| 20260510030855 | 49 | 90 | 2.0 | 2.0 | 0.00 | 0.15 | 0.15 | 99 | 1008.1 |
| 20260510030529 | 50 | 78 | 0.0 | 0.0 | 0.00 | 0.12 | 0.12 | 92 | 1009.7 |
| 20260510030351 | 50 | 95 | 2.0 | 2.0 | 0.00 | 0.15 | 0.15 | 99 | 1008.3 |
| 20260510030027 | 50 | 78 | 0.0 | 0.0 | 0.00 | 0.12 | 0.12 | 92 | 1009.6 |
| 20260510025849 | 50 | 96 | 2.0 | 2.0 | 0.00 | 0.15 | 0.15 | 99 | 1008.0 |
| 20260510025525 | 50 | 78 | 0.0 | 0.0 | 0.00 | 0.12 | 0.12 | 92 | 1009.6 |
| 20260510025346 | 50 | 70 | 2.0 | 2.0 | 0.00 | 0.15 | 0.15 | 99 | 1008.1 |
| 20260510025024 | 51 | 78 | 0.0 | 0.0 | 0.00 | 0.12 | 0.12 | 92 | 1009.5 |
| 20260510024843 | 50 | 96 | 2.0 | 2.0 | 0.00 | 0.15 | 0.15 | 99 | 1008.0 |
| 20260510024523 | 51 | 78 | 0.0 | 0.0 | 0.00 | 0.12 | 0.12 | 92 | 1009.4 |
| 20260510024340 | 50 | 90 | 1.0 | 2.0 | 0.00 | 0.15 | 0.15 | 99 | 1008.1 |
| 20260510024024 | 51 | 78 | 0.0 | 0.0 | 0.00 | 0.12 | 0.12 | 92 | 1009.4 |
| 20260510023836 | 50 | 103 | 2.0 | 3.0 | 0.00 | 0.15 | 0.15 | 99 | 1008.0 |
| 20260510023523 | 51 | 78 | 0.0 | 0.0 | 0.00 | 0.12 | 0.12 | 92 | 1009.4 |
| 20260510023333 | 50 | 81 | 2.0 | 3.0 | 0.00 | 0.15 | 0.15 | 99 | 1007.9 |
| 20260510023022 | 51 | 78 | 0.0 | 0.0 | 0.00 | 0.12 | 0.12 | 92 | 1009.4 |
| 20260510022830 | 50 | 84 | 2.0 | 2.0 | 0.00 | 0.15 | 0.15 | 99 | 1008.1 |
| 20260510022524 | 51 | 78 | 0.0 | 0.0 | 0.00 | 0.12 | 0.12 | 92 | 1009.6 |
| 20260510022329 | 51 | 95 | 2.0 | 2.0 | 0.00 | 0.15 | 0.15 | 99 | 1008.1 |
| 20260510022023 | 51 | 78 | 0.0 | 0.0 | 0.00 | 0.12 | 0.12 | 92 | 1009.4 |
| 20260510021828 | 51 | 90 | 2.0 | 2.0 | 0.00 | 0.15 | 0.15 | 99 | 1008.2 |
| 20260510021510 | 51 | 78 | 0.0 | 0.0 | 0.00 | 0.12 | 0.12 | 92 | 1009.4 |
| 20260510021327 | 51 | 84 | 2.0 | 2.0 | 0.00 | 0.15 | 0.15 | 99 | 1008.1 |
| 20260510020958 | 51 | 78 | 0.0 | 0.0 | 0.00 | 0.12 | 0.12 | 92 | 1009.5 |
| 20260510020822 | 51 | 90 | 2.0 | 2.0 | 0.00 | 0.15 | 0.15 | 99 | 1007.8 |
| 20260510020458 | 52 | 78 | 0.0 | 0.0 | 0.00 | 0.12 | 0.12 | 92 | 1009.4 |
| 20260510020317 | 51 | 68 | 2.0 | 2.0 | 0.00 | 0.15 | 0.15 | 99 | 1008.0 |
| 20260510015959 | 52 | 78 | 0.0 | 0.0 | 0.00 | 0.12 | 0.12 | 92 | 1009.4 |
| 20260510015813 | 51 | 101 | 2.0 | 2.0 | 0.00 | 0.15 | 0.15 | 99 | 1008.0 |
| 20260510015456 | 52 | 78 | 0.0 | 0.0 | 0.00 | 0.12 | 0.12 | 92 | 1009.3 |
| 20260510015310 | 51 | 84 | 2.0 | 2.0 | 0.00 | 0.15 | 0.15 | 99 | 1007.9 |
| 20260510014952 | 52 | 78 | 0.0 | 0.0 | 0.00 | 0.12 | 0.12 | 92 | 1009.3 |
| 20260510014805 | 52 | 68 | 2.0 | 2.0 | 0.00 | 0.15 | 0.15 | 99 | 1007.9 |
| 20260510014736 | 52 | 78 | 0.0 | 0.0 | 0.00 | 0.12 | 0.12 | 92 | 1009.3 |
| 20260510014302 | 52 | 90 | 2.0 | 2.0 | 0.00 | 0.15 | 0.15 | 99 | 1007.7 |
| 20260510013950 | 53 | 78 | 0.0 | 0.0 | 0.00 | 0.12 | 0.12 | 92 | 1009.2 |
| 20260510013758 | 52 | 86 | 2.0 | 2.0 | 0.00 | 0.15 | 0.15 | 99 | 1007.7 |
| 20260510013500 | 53 | 78 | 0.0 | 0.0 | 0.00 | 0.12 | 0.12 | 91 | 1009.2 |
| 20260510013254 | 52 | 82 | 2.0 | 3.0 | 0.00 | 0.15 | 0.15 | 99 | 1007.5 |
| 20260510012937 | 53 | 78 | 0.0 | 0.0 | 0.00 | 0.12 | 0.12 | 91 | 1009.1 |
| 20260510012749 | 52 | 90 | 2.0 | 3.0 | 0.00 | 0.15 | 0.15 | 99 | 1007.6 |
| 20260510012427 | 53 | 78 | 0.0 | 0.0 | 0.00 | 0.12 | 0.12 | 91 | 1009.1 |
| 20260510012244 | 52 | 90 | 2.0 | 3.0 | 0.00 | 0.15 | 0.15 | 99 | 1007.4 |
| 20260510011923 | 53 | 78 | 0.0 | 0.0 | 0.00 | 0.12 | 0.12 | 91 | 1009.1 |
| 20260510011743 | 52 | 97 | 3.0 | 3.0 | 0.00 | 0.15 | 0.15 | 98 | 1007.7 |
| 20260510011421 | 53 | 78 | 0.0 | 0.0 | 0.00 | 0.12 | 0.12 | 91 | 1009.1 |
| 20260510011239 | 53 | 103 | 2.0 | 3.0 | 0.00 | 0.15 | 0.15 | 98 | 1007.7 |
| 20260510010920 | 54 | 78 | 0.0 | 0.0 | 0.00 | 0.12 | 0.12 | 91 | 1009.0 |
| 20260510010737 | 53 | 95 | 2.0 | 2.0 | 0.00 | 0.15 | 0.15 | 98 | 1007.6 |
| 20260510010417 | 54 | 78 | 0.0 | 0.0 | 0.00 | 0.12 | 0.12 | 91 | 1008.9 |
| 20260510010233 | 53 | 95 | 2.0 | 2.0 | 0.00 | 0.15 | 0.15 | 98 | 1007.4 |
| 20260510005914 | 54 | 78 | 0.0 | 0.0 | 0.00 | 0.12 | 0.12 | 91 | 1008.8 |
| 20260510005730 | 53 | 90 | 2.0 | 2.0 | 0.00 | 0.15 | 0.15 | 98 | 1007.4 |
| 20260510005413 | 54 | 78 | 0.0 | 0.0 | 0.00 | 0.12 | 0.12 | 91 | 1008.8 |
| 20260510005226 | 54 | 94 | 2.0 | 3.0 | 0.00 | 0.15 | 0.15 | 98 | 1007.2 |
| 20260510004911 | 55 | 78 | 0.0 | 0.0 | 0.00 | 0.12 | 0.12 | 91 | 1008.8 |
| 20260510004724 | 54 | 95 | 2.0 | 3.0 | 0.00 | 0.15 | 0.15 | 98 | 1007.2 |
| 20260510004410 | 55 | 78 | 0.0 | 0.0 | 0.00 | 0.12 | 0.12 | 90 | 1008.8 |
| 20260510004222 | 54 | 90 | 3.0 | 3.0 | 0.00 | 0.15 | 0.15 | 98 | 1007.3 |
| 20260510003855 | 55 | 78 | 0.0 | 0.0 | 0.00 | 0.12 | 0.12 | 90 | 1008.8 |
| 20260510003719 | 54 | 94 | 2.0 | 3.0 | 0.00 | 0.15 | 0.15 | 98 | 1007.4 |
| 20260510003352 | 55 | 78 | 0.0 | 0.0 | 0.00 | 0.12 | 0.12 | 90 | 1008.7 |
| 20260510003215 | 55 | 94 | 3.0 | 3.0 | 0.00 | 0.15 | 0.15 | 97 | 1007.3 |
| 20260510002848 | 56 | 78 | 0.0 | 0.0 | 0.00 | 0.12 | 0.12 | 90 | 1008.7 |
| 20260510002714 | 55 | 94 | 3.0 | 3.0 | 0.00 | 0.15 | 0.15 | 97 | 1007.1 |
| 20260510002346 | 56 | 78 | 0.0 | 0.0 | 0.00 | 0.12 | 0.12 | 90 | 1008.6 |
| 20260510002212 | 55 | 90 | 2.0 | 2.0 | 0.00 | 0.15 | 0.15 | 97 | 1006.8 |
| 20260510001844 | 56 | 78 | 0.0 | 0.0 | 0.00 | 0.12 | 0.12 | 90 | 1008.5 |
| 20260510001708 | 55 | 93 | 3.0 | 3.0 | 0.00 | 0.15 | 0.15 | 97 | 1007.1 |
| 20260510001629 | 56 | 78 | 0.0 | 0.0 | 0.00 | 0.12 | 0.12 | 90 | 1008.6 |
| 20260510001207 | 55 | 90 | 2.0 | 2.0 | 0.00 | 0.15 | 0.15 | 97 | 1007.1 |
| 20260510000840 | 56 | 78 | 0.0 | 0.0 | 0.00 | 0.12 | 0.12 | 90 | 1008.5 |
| 20260510000702 | 56 | 94 | 2.0 | 2.0 | 0.00 | 0.15 | 0.15 | 97 | 1007.2 |
| 20260510000341 | 57 | 78 | 0.0 | 0.0 | 0.00 | 0.12 | 0.12 | 90 | 1008.5 |
| 20260510000200 | 56 | 94 | 3.0 | 3.0 | 0.00 | 0.15 | 0.15 | 96 | 1007.1 |
| 20260509235837 | 57 | 78 | 0.0 | 0.0 | 0.00 | 0.12 | 0.12 | 90 | 1008.5 |
| 20260509235656 | 56 | 78 | 2.0 | 3.0 | 0.00 | 0.15 | 0.15 | 96 | 1007.0 |
| 20260509235337 | 57 | 78 | 0.0 | 0.0 | 0.00 | 0.12 | 0.12 | 89 | 1008.5 |
| 20260509235152 | 57 | 102 | 3.0 | 3.0 | 0.00 | 0.15 | 0.15 | 96 | 1007.0 |
| 20260509234825 | 57 | 78 | 0.0 | 0.0 | 0.00 | 0.12 | 0.12 | 89 | 1008.5 |
| 20260509234649 | 57 | 103 | 2.0 | 3.0 | 0.00 | 0.15 | 0.15 | 96 | 1007.1 |
| 20260509234319 | 58 | 78 | 0.0 | 0.0 | 0.00 | 0.12 | 0.12 | 89 | 1008.4 |
| 20260509234146 | 57 | 98 | 2.0 | 3.0 | 0.00 | 0.15 | 0.15 | 95 | 1007.0 |
| 20260509233819 | 58 | 78 | 0.0 | 0.0 | 0.00 | 0.12 | 0.12 | 88 | 1008.5 |
| 20260509233644 | 57 | 105 | 3.0 | 4.0 | 0.00 | 0.15 | 0.15 | 95 | 1006.9 |
| 20260509233319 | 58 | 78 | 0.0 | 0.0 | 0.00 | 0.12 | 0.12 | 88 | 1008.5 |
| 20260509233141 | 58 | 80 | 2.0 | 3.0 | 0.00 | 0.15 | 0.15 | 95 | 1007.1 |
| 20260509232818 | 58 | 78 | 0.0 | 1.0 | 0.00 | 0.12 | 0.12 | 88 | 1008.6 |
| 20260509232637 | 58 | 96 | 2.0 | 3.0 | 0.00 | 0.15 | 0.15 | 94 | 1007.1 |
| 20260509232316 | 58 | 78 | 0.0 | 1.0 | 0.00 | 0.12 | 0.12 | 88 | 1008.5 |
| 20260509232134 | 58 | 86 | 3.0 | 4.0 | 0.00 | 0.15 | 0.15 | 94 | 1007.0 |
| 20260509231817 | 59 | 74 | 0.0 | 0.0 | 0.00 | 0.12 | 0.12 | 88 | 1008.4 |
| 20260509231631 | 58 | 90 | 3.0 | 4.0 | 0.00 | 0.15 | 0.15 | 94 | 1006.8 |
| 20260509231317 | 59 | 74 | 0.0 | 0.0 | 0.00 | 0.12 | 0.12 | 88 | 1008.5 |
| 20260509231128 | 59 | 101 | 3.0 | 3.0 | 0.00 | 0.15 | 0.15 | 94 | 1006.9 |
| 20260509230814 | 59 | 74 | 0.0 | 0.0 | 0.00 | 0.12 | 0.12 | 88 | 1008.5 |
| 20260509230625 | 59 | 110 | 3.0 | 3.0 | 0.00 | 0.15 | 0.15 | 93 | 1007.0 |
| 20260509230301 | 59 | 74 | 0.0 | 0.0 | 0.00 | 0.12 | 0.12 | 86 | 1008.5 |
| 20260509230122 | 59 | 103 | 2.0 | 3.0 | 0.00 | 0.15 | 0.15 | 93 | 1006.9 |
| 20260509225743 | 59 | 74 | 0.0 | 0.0 | 0.00 | 0.12 | 0.12 | 86 | 1008.5 |
| 20260509225618 | 59 | 90 | 3.0 | 3.0 | 0.00 | 0.15 | 0.15 | 92 | 1007.0 |
| 20260509225233 | 59 | 74 | 0.0 | 0.0 | 0.00 | 0.12 | 0.12 | 85 | 1008.5 |
| 20260509225114 | 59 | 109 | 3.0 | 3.0 | 0.00 | 0.15 | 0.15 | 91 | 1006.9 |
| 20260509224721 | 59 | 74 | 0.0 | 0.0 | 0.00 | 0.12 | 0.12 | 85 | 1008.4 |
| 20260509224609 | 59 | 94 | 2.0 | 3.0 | 0.00 | 0.15 | 0.15 | 90 | 1007.0 |
| 20260509224222 | 59 | 74 | 0.0 | 1.0 | 0.00 | 0.12 | 0.12 | 84 | 1008.5 |
| 20260509224106 | 59 | 102 | 2.0 | 3.0 | 0.00 | 0.15 | 0.15 | 88 | 1007.0 |
| 20260509223722 | 59 | 74 | 1.0 | 3.0 | 0.00 | 0.12 | 0.12 | 82 | 1008.4 |
| 20260509223603 | 60 | 98 | 2.0 | 3.0 | 0.00 | 0.15 | 0.15 | 86 | 1007.0 |
| 20260509223222 | 59 | 70 | 0.0 | 3.0 | 0.00 | 0.12 | 0.12 | 82 | 1008.5 |
| 20260509223101 | 59 | 90 | 3.0 | 3.0 | 0.00 | 0.15 | 0.15 | 87 | 1006.9 |
| 20260509222722 | 59 | 312 | 0.0 | 0.0 | 0.00 | 0.12 | 0.12 | 84 | 1008.4 |
| 20260509222557 | 59 | 98 | 2.0 | 3.0 | 0.00 | 0.15 | 0.15 | 87 | 1006.8 |
| 20260509222231 | 59 | 312 | 0.0 | 0.0 | 0.00 | 0.12 | 0.12 | 83 | 1008.4 |
| 20260509222053 | 59 | 108 | 2.0 | 3.0 | 0.00 | 0.15 | 0.15 | 88 | 1006.9 |
| 20260509221718 | 59 | 311 | 0.0 | 0.0 | 0.00 | 0.12 | 0.12 | 84 | 1008.4 |
| 20260509221548 | 59 | 113 | 2.0 | 2.0 | 0.00 | 0.15 | 0.15 | 87 | 1006.8 |
| 20260509221219 | 59 | 311 | 0.0 | 0.0 | 0.00 | 0.12 | 0.12 | 83 | 1008.5 |
| 20260509221045 | 59 | 124 | 2.0 | 2.0 | 0.00 | 0.15 | 0.15 | 87 | 1007.1 |
| 20260509220709 | 59 | 311 | 0.0 | 0.0 | 0.00 | 0.12 | 0.12 | 85 | 1008.5 |
| 20260509220541 | 59 | 98 | 2.0 | 4.0 | 0.00 | 0.15 | 0.15 | 89 | 1007.1 |
| 20260509220159 | 59 | 311 | 0.0 | 0.0 | 0.00 | 0.12 | 0.12 | 85 | 1008.5 |
| 20260509220037 | 59 | 99 | 2.0 | 2.0 | 0.00 | 0.15 | 0.15 | 88 | 1007.1 |
| 20260509215649 | 59 | 311 | 0.0 | 0.0 | 0.00 | 0.12 | 0.12 | 85 | 1008.5 |
| 20260509215532 | 59 | 98 | 2.0 | 3.0 | 0.00 | 0.15 | 0.15 | 89 | 1006.9 |
| 20260509215423 | 59 | 311 | 0.0 | 0.0 | 0.00 | 0.12 | 0.12 | 84 | 1008.5 |
| 20260509215030 | 59 | 90 | 1.0 | 2.0 | 0.00 | 0.15 | 0.15 | 88 | 1007.1 |
| 20260509214625 | 58 | 311 | 0.0 | 0.0 | 0.00 | 0.12 | 0.12 | 85 | 1008.4 |
| 20260509214527 | 59 | 90 | 1.0 | 1.0 | 0.00 | 0.15 | 0.15 | 88 | 1006.9 |
| 20260509214115 | 58 | 311 | 0.0 | 0.0 | 0.00 | 0.12 | 0.12 | 84 | 1008.4 |
| 20260509214024 | 59 | 90 | 2.0 | 2.0 | 0.00 | 0.15 | 0.15 | 88 | 1007.0 |
| 20260509213601 | 58 | 311 | 0.0 | 0.0 | 0.00 | 0.12 | 0.12 | 85 | 1008.4 |
| 20260509213520 | 59 | 100 | 2.0 | 2.0 | 0.00 | 0.15 | 0.15 | 88 | 1006.9 |
| 20260509213337 | 58 | 311 | 0.0 | 0.0 | 0.00 | 0.12 | 0.12 | 86 | 1008.5 |
| 20260509213017 | 59 | 106 | 1.0 | 2.0 | 0.00 | 0.15 | 0.15 | 86 | 1007.1 |
| 20260509212541 | 58 | 311 | 0.0 | 3.0 | 0.00 | 0.12 | 0.12 | 84 | 1008.4 |
| 20260509212514 | 59 | 102 | 2.0 | 3.0 | 0.00 | 0.15 | 0.15 | 86 | 1006.9 |
| 20260509212041 | 58 | 311 | 0.0 | 3.0 | 0.00 | 0.12 | 0.12 | 86 | 1008.5 |
| 20260509212011 | 59 | 111 | 1.0 | 3.0 | 0.00 | 0.15 | 0.15 | 86 | 1006.8 |
| 20260509211538 | 58 | 355 | 0.0 | 0.0 | 0.00 | 0.12 | 0.12 | 88 | 1008.5 |
| 20260509211506 | 59 | 96 | 3.0 | 3.0 | 0.00 | 0.15 | 0.15 | 91 | 1007.2 |
| 20260509211039 | 57 | 350 | 0.0 | 0.0 | 0.00 | 0.12 | 0.12 | 89 | 1008.6 |
| 20260509211003 | 59 | 90 | 2.0 | 2.0 | 0.00 | 0.15 | 0.15 | 93 | 1007.0 |
| 20260509210537 | 57 | 350 | 0.0 | 0.0 | 0.00 | 0.12 | 0.12 | 88 | 1008.6 |
| 20260509210500 | 58 | 84 | 2.0 | 2.0 | 0.00 | 0.15 | 0.15 | 93 | 1007.2 |
| 20260509210037 | 57 | 350 | 0.0 | 0.0 | 0.00 | 0.12 | 0.12 | 88 | 1008.6 |
| 20260509205956 | 57 | 90 | 2.0 | 3.0 | 0.00 | 0.15 | 0.15 | 93 | 1007.2 |
| 20260509205535 | 57 | 350 | 0.0 | 0.0 | 0.00 | 0.12 | 0.12 | 88 | 1008.7 |
| 20260509205450 | 57 | 101 | 3.0 | 3.0 | 0.00 | 0.15 | 0.15 | 93 | 1007.3 |
| 20260509205032 | 57 | 350 | 0.0 | 0.0 | 0.00 | 0.12 | 0.12 | 89 | 1008.7 |
| 20260509204946 | 57 | 85 | 2.0 | 2.0 | 0.00 | 0.15 | 0.15 | 93 | 1007.1 |
| 20260509204532 | 57 | 350 | 0.0 | 0.0 | 0.00 | 0.12 | 0.12 | 88 | 1008.7 |
| 20260509204443 | 57 | 115 | 2.0 | 3.0 | 0.00 | 0.15 | 0.15 | 93 | 1007.2 |
| 20260509204032 | 57 | 350 | 0.0 | 0.0 | 0.00 | 0.12 | 0.12 | 89 | 1008.7 |
| 20260509203940 | 57 | 107 | 2.0 | 2.0 | 0.00 | 0.15 | 0.15 | 92 | 1007.4 |
| 20260509203532 | 57 | 350 | 0.0 | 0.0 | 0.00 | 0.12 | 0.12 | 89 | 1008.6 |
| 20260509203435 | 57 | 108 | 2.0 | 2.0 | 0.00 | 0.15 | 0.15 | 93 | 1007.2 |
| 20260509203032 | 57 | 350 | 0.0 | 0.0 | 0.00 | 0.12 | 0.12 | 89 | 1008.6 |
| 20260509202933 | 57 | 103 | 2.0 | 3.0 | 0.00 | 0.15 | 0.15 | 93 | 1007.1 |
| 20260509202533 | 57 | 350 | 0.0 | 0.0 | 0.00 | 0.12 | 0.12 | 89 | 1008.7 |
| 20260509202429 | 58 | 90 | 2.0 | 3.0 | 0.00 | 0.15 | 0.15 | 93 | 1007.2 |
| 20260509202033 | 57 | 350 | 0.0 | 0.0 | 0.00 | 0.12 | 0.12 | 90 | 1008.6 |
| 20260509201924 | 58 | 103 | 2.0 | 3.0 | 0.00 | 0.15 | 0.15 | 93 | 1007.2 |
| 20260509201813 | 57 | 350 | 0.0 | 0.0 | 0.00 | 0.12 | 0.12 | 90 | 1008.7 |
| 20260509201420 | 58 | 29 | 1.0 | 4.0 | 0.00 | 0.15 | 0.15 | 95 | 1007.0 |
| 20260509201032 | 57 | 345 | 0.0 | 0.0 | 0.00 | 0.12 | 0.12 | 90 | 1008.6 |
| 20260509200917 | 57 | 97 | 3.0 | 3.0 | 0.00 | 0.15 | 0.15 | 95 | 1007.0 |
| 20260509200545 | 57 | 345 | 0.0 | 0.0 | 0.00 | 0.12 | 0.12 | 91 | 1008.7 |
| 20260509200417 | 57 | 90 | 2.0 | 3.0 | 0.00 | 0.15 | 0.15 | 95 | 1007.2 |
| 20260509200033 | 57 | 345 | 0.0 | 0.0 | 0.00 | 0.12 | 0.12 | 92 | 1008.7 |
| 20260509195914 | 57 | 69 | 1.0 | 2.0 | 0.00 | 0.15 | 0.15 | 96 | 1007.3 |
| 20260509195528 | 57 | 345 | 0.0 | 0.0 | 0.03 | 0.12 | 0.12 | 91 | 1008.8 |
| 20260509195409 | 57 | 106 | 1.0 | 3.0 | 0.00 | 0.15 | 0.15 | 96 | 1007.2 |
| 20260509195027 | 57 | 345 | 0.0 | 0.0 | 0.03 | 0.12 | 0.12 | 92 | 1008.6 |
| 20260509194908 | 57 | 85 | 2.0 | 3.0 | 0.28 | 0.15 | 0.15 | 96 | 1007.0 |
| 20260509194527 | 56 | 345 | 0.0 | 0.0 | 0.04 | 0.12 | 0.12 | 93 | 1008.8 |
| 20260509194405 | 56 | 12 | 3.0 | 3.0 | 0.28 | 0.15 | 0.15 | 96 | 1007.2 |
| 20260509194310 | 56 | 345 | 0.0 | 0.0 | 0.04 | 0.12 | 0.12 | 93 | 1008.6 |
| 20260509193902 | 57 | 85 | 2.0 | 2.0 | 0.00 | 0.10 | 0.10 | 97 | 1007.1 |
| 20260509193526 | 56 | 346 | 0.0 | 0.0 | 0.05 | 0.12 | 0.12 | 92 | 1008.8 |
| 20260509193402 | 56 | 101 | 3.0 | 4.0 | 0.00 | 0.10 | 0.10 | 97 | 1007.3 |
| 20260509193024 | 55 | 346 | 0.0 | 0.0 | 0.05 | 0.12 | 0.12 | 91 | 1008.9 |
| 20260509192858 | 56 | 86 | 2.0 | 3.0 | 0.00 | 0.10 | 0.10 | 97 | 1007.4 |
| 20260509192524 | 55 | 346 | 0.0 | 0.0 | 0.05 | 0.12 | 0.12 | 91 | 1009.0 |
| 20260509192354 | 55 | 90 | 3.0 | 3.0 | 0.00 | 0.10 | 0.10 | 97 | 1007.3 |
| 20260509192025 | 55 | 346 | 0.0 | 0.0 | 0.05 | 0.12 | 0.12 | 91 | 1009.2 |
| 20260509191850 | 55 | 94 | 2.0 | 4.0 | 0.00 | 0.10 | 0.10 | 97 | 1007.8 |
| 20260509191522 | 55 | 344 | 0.0 | 0.0 | 0.05 | 0.12 | 0.12 | 91 | 1009.3 |
| 20260509191346 | 55 | 93 | 3.0 | 4.0 | 0.00 | 0.10 | 0.10 | 96 | 1007.9 |
| 20260509191022 | 55 | 329 | 0.0 | 0.0 | 0.05 | 0.12 | 0.12 | 91 | 1009.4 |
| 20260509190842 | 55 | 97 | 3.0 | 3.0 | 0.00 | 0.10 | 0.10 | 96 | 1008.2 |
| 20260509190515 | 55 | 255 | 0.0 | 0.0 | 0.05 | 0.12 | 0.12 | 90 | 1009.6 |
| 20260509190339 | 54 | 53 | 2.0 | 3.0 | 0.00 | 0.10 | 0.10 | 96 | 1008.0 |
| 20260509190017 | 55 | 255 | 0.0 | 0.0 | 0.04 | 0.11 | 0.12 | 90 | 1009.6 |
| 20260509185836 | 54 | 30 | 2.0 | 3.0 | 0.00 | 0.10 | 0.10 | 95 | 1008.0 |
| 20260509185513 | 55 | 254 | 0.0 | 0.0 | 0.02 | 0.09 | 0.10 | 89 | 1009.7 |
| 20260509185333 | 54 | 45 | 2.0 | 3.0 | 0.00 | 0.10 | 0.10 | 95 | 1008.3 |
| 20260509185014 | 55 | 254 | 0.0 | 0.0 | 0.02 | 0.09 | 0.09 | 89 | 1009.9 |
| 20260509184830 | 55 | 75 | 2.0 | 2.0 | 0.07 | 0.10 | 0.10 | 94 | 1008.3 |
| 20260509184514 | 55 | 254 | 0.0 | 0.0 | 0.01 | 0.08 | 0.08 | 89 | 1009.9 |
| 20260509184327 | 55 | 69 | 1.0 | 2.0 | 0.07 | 0.10 | 0.10 | 94 | 1008.4 |
| 20260509184015 | 55 | 254 | 0.0 | 0.0 | 0.01 | 0.08 | 0.08 | 89 | 1010.0 |
| 20260509183824 | 55 | 90 | 2.0 | 2.0 | 0.00 | 0.09 | 0.09 | 94 | 1008.1 |
| 20260509183519 | 55 | 254 | 0.0 | 0.0 | 0.00 | 0.07 | 0.07 | 88 | 1010.0 |
| 20260509183334 | 55 | 254 | 0.0 | 0.0 | 0.00 | 0.07 | 0.07 | 88 | 1010.1 |
| 20260509183319 | 55 | 94 | 3.0 | 3.0 | 0.00 | 0.09 | 0.09 | 94 | 1008.5 |
| 20260509183045 | 55 | 254 | 0.0 | 0.0 | 0.00 | 0.07 | 0.07 | 88 | 1010.1 |
| 20260509182815 | 55 | 84 | 1.0 | 2.0 | 0.00 | 0.09 | 0.09 | 93 | 1008.4 |
| 20260509182312 | 55 | 63 | 1.0 | 3.0 | 0.00 | 0.09 | 0.09 | 93 | 1008.6 |
| 20260509182235 | 55 | 254 | 0.0 | 0.0 | 0.00 | 0.07 | 0.07 | 88 | 1010.2 |
| 20260509181809 | 55 | 81 | 2.0 | 2.0 | 0.00 | 0.09 | 0.09 | 92 | 1008.7 |
| 20260509181438 | 55 | 254 | 0.0 | 0.0 | 0.00 | 0.07 | 0.07 | 88 | 1010.2 |
| 20260509181307 | 55 | 51 | 2.0 | 3.0 | 0.00 | 0.09 | 0.09 | 93 | 1008.8 |
| 20260509180937 | 55 | 254 | 0.0 | 0.0 | 0.00 | 0.07 | 0.07 | 88 | 1010.3 |
| 20260509180804 | 55 | 63 | 2.0 | 2.0 | 0.00 | 0.09 | 0.09 | 93 | 1008.7 |
| 20260509180721 | 55 | 254 | 0.0 | 1.0 | 0.00 | 0.07 | 0.07 | 87 | 1010.3 |
| 20260509180300 | 55 | 53 | 2.0 | 2.0 | 0.00 | 0.09 | 0.09 | 92 | 1008.8 |
| 20260509175934 | 55 | 254 | 0.0 | 2.0 | 0.00 | 0.07 | 0.07 | 87 | 1010.4 |
| 20260509175756 | 55 | 74 | 1.0 | 3.0 | 0.00 | 0.09 | 0.09 | 92 | 1008.6 |
| 20260509175731 | 55 | 254 | 0.0 | 2.0 | 0.00 | 0.07 | 0.07 | 87 | 1010.4 |
| 20260509175253 | 55 | 48 | 2.0 | 3.0 | 0.00 | 0.09 | 0.09 | 92 | 1008.8 |
| 20260509174932 | 56 | 228 | 0.0 | 0.0 | 0.00 | 0.07 | 0.07 | 87 | 1010.4 |
| 20260509174749 | 55 | 57 | 2.0 | 2.0 | 0.00 | 0.09 | 0.09 | 91 | 1009.0 |
| 20260509174430 | 56 | 228 | 0.0 | 0.0 | 0.00 | 0.07 | 0.07 | 87 | 1010.4 |
| 20260509174244 | 55 | 90 | 1.0 | 2.0 | 0.00 | 0.09 | 0.09 | 91 | 1008.8 |
| 20260509173927 | 56 | 228 | 0.0 | 0.0 | 0.00 | 0.07 | 0.07 | 88 | 1010.4 |
| 20260509173740 | 55 | 65 | 2.0 | 3.0 | 0.00 | 0.09 | 0.09 | 92 | 1008.8 |
| 20260509173428 | 56 | 228 | 0.0 | 0.0 | 0.00 | 0.07 | 0.07 | 88 | 1010.4 |
| 20260509173236 | 55 | 75 | 1.0 | 2.0 | 0.00 | 0.09 | 0.09 | 92 | 1008.9 |
| 20260509172917 | 56 | 228 | 0.0 | 0.0 | 0.00 | 0.07 | 0.07 | 88 | 1010.4 |
| 20260509172733 | 55 | 45 | 2.0 | 3.0 | 0.00 | 0.09 | 0.09 | 92 | 1009.0 |
| 20260509172407 | 56 | 228 | 0.0 | 0.0 | 0.00 | 0.07 | 0.07 | 87 | 1010.4 |
| 20260509172229 | 55 | 63 | 2.0 | 3.0 | 0.00 | 0.09 | 0.09 | 93 | 1008.9 |
| 20260509172144 | 56 | 227 | 0.0 | 0.0 | 0.00 | 0.07 | 0.07 | 87 | 1010.5 |
| 20260509171724 | 55 | 66 | 0.0 | 1.0 | 0.05 | 0.09 | 0.09 | 92 | 1009.0 |
| 20260509171342 | 56 | 227 | 0.0 | 0.0 | 0.00 | 0.07 | 0.07 | 87 | 1010.5 |
| 20260509171221 | 55 | 90 | 2.0 | 2.0 | 0.05 | 0.09 | 0.09 | 92 | 1008.9 |
| 20260509170838 | 56 | 227 | 0.0 | 0.0 | 0.00 | 0.07 | 0.07 | 87 | 1010.5 |
| 20260509170718 | 55 | 52 | 2.0 | 2.0 | 0.00 | 0.08 | 0.08 | 93 | 1009.1 |
| 20260509170336 | 56 | 227 | 0.0 | 0.0 | 0.00 | 0.07 | 0.07 | 88 | 1010.5 |
| 20260509170214 | 56 | 74 | 1.0 | 2.0 | 0.00 | 0.08 | 0.08 | 93 | 1008.9 |
| 20260509165834 | 56 | 227 | 0.0 | 0.0 | 0.00 | 0.07 | 0.07 | 87 | 1010.4 |
| 20260509165713 | 56 | 99 | 0.0 | 2.0 | 0.00 | 0.08 | 0.08 | 92 | 1008.9 |
| 20260509165332 | 56 | 227 | 0.0 | 0.0 | 0.00 | 0.07 | 0.07 | 87 | 1010.3 |
| 20260509165208 | 56 | 60 | 0.0 | 2.0 | 0.00 | 0.08 | 0.08 | 93 | 1008.9 |
| 20260509164833 | 56 | 227 | 0.0 | 0.0 | 0.01 | 0.07 | 0.07 | 88 | 1010.4 |
| 20260509164704 | 56 | 66 | 2.0 | 2.0 | 0.00 | 0.08 | 0.08 | 92 | 1008.6 |
| 20260509164331 | 56 | 227 | 0.0 | 0.0 | 0.01 | 0.07 | 0.07 | 88 | 1010.4 |
| 20260509164200 | 56 | 80 | 2.0 | 3.0 | 0.00 | 0.08 | 0.08 | 92 | 1008.7 |
| 20260509163830 | 56 | 227 | 0.0 | 0.0 | 0.01 | 0.07 | 0.07 | 89 | 1010.4 |
| 20260509163658 | 56 | 71 | 0.0 | 2.0 | 0.00 | 0.08 | 0.08 | 93 | 1009.0 |
| 20260509163319 | 56 | 227 | 0.0 | 0.0 | 0.02 | 0.07 | 0.07 | 89 | 1010.3 |
| 20260509163154 | 56 | 35 | 0.0 | 2.0 | 0.00 | 0.08 | 0.08 | 93 | 1008.9 |
| 20260509163106 | 56 | 227 | 0.0 | 0.0 | 0.02 | 0.07 | 0.07 | 88 | 1010.3 |
| 20260509162652 | 56 | 117 | 2.0 | 3.0 | 0.00 | 0.08 | 0.08 | 93 | 1008.7 |
| 20260509162319 | 56 | 227 | 0.0 | 0.0 | 0.03 | 0.07 | 0.07 | 89 | 1010.1 |
| 20260509162147 | 56 | 103 | 1.0 | 1.0 | 0.00 | 0.08 | 0.08 | 93 | 1008.3 |
| 20260509161816 | 56 | 227 | 0.0 | 0.0 | 0.03 | 0.07 | 0.07 | 90 | 1009.9 |
| 20260509161643 | 56 | 90 | 2.0 | 2.0 | 0.12 | 0.08 | 0.08 | 95 | 1008.3 |
| 20260509161316 | 56 | 227 | 0.0 | 0.0 | 0.04 | 0.07 | 0.07 | 90 | 1010.0 |
| 20260509161138 | 56 | 84 | 2.0 | 2.0 | 0.12 | 0.08 | 0.08 | 96 | 1008.6 |
| 20260509160817 | 56 | 227 | 0.0 | 0.0 | 0.04 | 0.07 | 0.07 | 90 | 1010.1 |
| 20260509160634 | 55 | 90 | 3.0 | 3.0 | 0.00 | 0.06 | 0.06 | 96 | 1008.8 |
| 20260509160314 | 56 | 227 | 0.0 | 0.0 | 0.05 | 0.07 | 0.07 | 91 | 1010.4 |
| 20260509160130 | 56 | 66 | 2.0 | 2.0 | 0.00 | 0.06 | 0.06 | 97 | 1008.9 |
| 20260509155813 | 56 | 227 | 0.0 | 0.0 | 0.05 | 0.07 | 0.07 | 91 | 1010.6 |
| 20260509155626 | 56 | 113 | 2.0 | 3.0 | 0.00 | 0.06 | 0.06 | 97 | 1009.1 |
| 20260509155556 | 56 | 227 | 0.0 | 0.0 | 0.06 | 0.07 | 0.07 | 90 | 1010.5 |
| 20260509155122 | 55 | 117 | 2.0 | 2.0 | 0.00 | 0.06 | 0.06 | 97 | 1008.7 |
| 20260509154811 | 56 | 227 | 0.0 | 0.0 | 0.05 | 0.06 | 0.06 | 90 | 1010.4 |
| 20260509154618 | 55 | 75 | 1.0 | 2.0 | 0.00 | 0.06 | 0.06 | 97 | 1009.2 |
| 20260509154308 | 56 | 227 | 0.0 | 0.0 | 0.05 | 0.06 | 0.06 | 90 | 1010.7 |
| 20260509154116 | 55 | 72 | 2.0 | 2.0 | 0.00 | 0.06 | 0.06 | 96 | 1009.1 |
| 20260509153806 | 56 | 227 | 0.0 | 0.0 | 0.05 | 0.06 | 0.06 | 89 | 1010.9 |
| 20260509153613 | 55 | 114 | 1.0 | 2.0 | 0.14 | 0.06 | 0.06 | 96 | 1009.4 |
| 20260509153303 | 56 | 227 | 0.0 | 0.0 | 0.04 | 0.05 | 0.05 | 89 | 1010.9 |
| 20260509153110 | 55 | 61 | 2.0 | 2.0 | 0.14 | 0.06 | 0.06 | 95 | 1009.4 |
| 20260509152802 | 56 | 227 | 0.0 | 0.0 | 0.05 | 0.05 | 0.05 | 88 | 1011.2 |
| 20260509152605 | 55 | 0 | 0.0 | 1.0 | 0.00 | 0.04 | 0.04 | 95 | 1009.9 |
| 20260509152305 | 56 | 225 | 0.0 | 0.0 | 0.04 | 0.04 | 0.04 | 88 | 1011.3 |
| 20260509152103 | 56 | 106 | 0.0 | 1.0 | 0.00 | 0.04 | 0.04 | 94 | 1009.9 |
| 20260509151802 | 56 | 174 | 0.0 | 0.0 | 0.04 | 0.04 | 0.04 | 87 | 1011.2 |
| 20260509151602 | 56 | 174 | 0.0 | 0.0 | 0.03 | 0.03 | 0.03 | 87 | 1011.2 |
| 20260509151559 | 55 | 151 | 0.0 | 1.0 | 0.05 | 0.04 | 0.04 | 93 | 1009.7 |
| 20260509151307 | 56 | 174 | 0.0 | 0.0 | 0.03 | 0.03 | 0.03 | 87 | 1011.2 |
| 20260509151057 | 56 | 180 | 1.0 | 1.0 | 0.05 | 0.04 | 0.04 | 93 | 1009.7 |
| 20260509150554 | 56 | 99 | 0.0 | 1.0 | 0.07 | 0.03 | 0.03 | 93 | 1009.5 |
| 20260509150228 | 56 | 174 | 0.0 | 3.0 | 0.02 | 0.02 | 0.02 | 87 | 1011.2 |
| 20260509150053 | 56 | 66 | 1.0 | 2.0 | 0.07 | 0.03 | 0.03 | 92 | 1009.6 |
| 20260509145718 | 56 | 174 | 0.0 | 3.0 | 0.02 | 0.02 | 0.02 | 86 | 1011.2 |
| 20260509145548 | 56 | 254 | 0.0 | 3.0 | 0.00 | 0.02 | 0.02 | 92 | 1009.7 |
| 20260509145204 | 57 | 173 | 0.0 | 2.0 | 0.01 | 0.01 | 0.01 | 86 | 1011.1 |
| 20260509145043 | 57 | 117 | 1.0 | 2.0 | 0.05 | 0.02 | 0.02 | 92 | 1009.6 |
| 20260509144650 | 57 | 173 | 0.0 | 3.0 | 0.01 | 0.01 | 0.01 | 85 | 1011.0 |
| 20260509144540 | 56 | 225 | 0.0 | 2.0 | 0.05 | 0.02 | 0.02 | 92 | 1009.5 |
| 20260509144149 | 57 | 173 | 1.0 | 3.0 | 0.01 | 0.01 | 0.01 | 85 | 1010.9 |
| 20260509144037 | 57 | 140 | 0.0 | 2.0 | 0.00 | 0.01 | 0.01 | 91 | 1009.2 |
| 20260509143935 | 57 | 173 | 1.0 | 3.0 | 0.01 | 0.01 | 0.01 | 84 | 1010.9 |
| 20260509143534 | 57 | 148 | 2.0 | 2.0 | 0.07 | 0.01 | 0.01 | 90 | 1009.7 |
| 20260509143146 | 58 | 173 | 0.0 | 3.0 | 0.00 | 0.00 | 0.00 | 83 | 1010.8 |
| 20260509143032 | 57 | 90 | 0.0 | 2.0 | 0.07 | 0.01 | 0.01 | 89 | 1009.5 |
| 20260509142657 | 58 | 173 | 0.0 | 3.0 | 0.00 | 0.00 | 0.00 | 82 | 1010.9 |
| 20260509142527 | 58 | 171 | 2.0 | 3.0 | 0.00 | 0.00 | 0.00 | 88 | 1009.2 |
| 20260509142142 | 58 | 173 | 1.0 | 3.0 | 0.00 | 0.00 | 0.00 | 81 | 1010.6 |
| 20260509142023 | 58 | 145 | 0.0 | 1.0 | 0.00 | 0.00 | 0.00 | 85 | 1009.3 |
| 20260509141639 | 58 | 173 | 0.0 | 3.0 | 0.00 | 0.00 | 0.00 | 80 | 1010.7 |
| 20260509141520 | 58 | 188 | 0.0 | 3.0 | 0.00 | 0.00 | 0.00 | 84 | 1009.0 |
| 20260509141420 | 58 | 188 | 1.0 | 4.0 | 0.00 | 0.00 | 0.00 | 79 | 1010.6 |
| 20260509141016 | 58 | 180 | 0.0 | 2.0 | 0.00 | 0.00 | 0.00 | 84 | 1008.9 |
| 20260509140630 | 58 | 194 | 2.0 | 4.0 | 0.00 | 0.00 | 0.00 | 79 | 1010.6 |
| 20260509140513 | 58 | 130 | 3.0 | 3.0 | 0.00 | 0.00 | 0.00 | 83 | 1009.0 |
| 20260509140129 | 58 | 187 | 2.0 | 4.0 | 0.00 | 0.00 | 0.00 | 79 | 1010.5 |
| 20260509140011 | 58 | 209 | 1.0 | 3.0 | 0.00 | 0.00 | 0.00 | 84 | 1009.0 |
| 20260509135917 | 58 | 214 | 2.0 | 4.0 | 0.00 | 0.00 | 0.00 | 79 | 1010.5 |
| 20260509135508 | 58 | 203 | 0.0 | 3.0 | 0.00 | 0.00 | 0.00 | 84 | 1009.0 |
| 20260509135128 | 58 | 175 | 2.0 | 4.0 | 0.00 | 0.00 | 0.00 | 78 | 1010.4 |
| 20260509135005 | 58 | 203 | 1.0 | 2.0 | 0.00 | 0.00 | 0.00 | 83 | 1008.8 |
| 20260509134631 | 58 | 169 | 2.0 | 5.0 | 0.00 | 0.00 | 0.00 | 78 | 1010.4 |
| 20260509134503 | 58 | 180 | 1.0 | 4.0 | 0.00 | 0.00 | 0.00 | 83 | 1008.8 |
| 20260509134130 | 58 | 150 | 1.0 | 5.0 | 0.00 | 0.00 | 0.00 | 78 | 1010.3 |
| 20260509134000 | 58 | 189 | 2.0 | 3.0 | 0.00 | 0.00 | 0.00 | 82 | 1008.5 |
| 20260509133629 | 58 | 140 | 1.0 | 3.0 | 0.00 | 0.00 | 0.00 | 79 | 1010.4 |
| 20260509133456 | 58 | 124 | 2.0 | 4.0 | 0.00 | 0.00 | 0.00 | 83 | 1008.7 |
| 20260509133128 | 58 | 174 | 0.0 | 3.0 | 0.00 | 0.00 | 0.00 | 81 | 1010.3 |
| 20260509132955 | 58 | 126 | 1.0 | 2.0 | 0.00 | 0.00 | 0.00 | 84 | 1008.8 |
| 20260509132623 | 57 | 174 | 1.0 | 4.0 | 0.00 | 0.00 | 0.00 | 81 | 1010.4 |
| 20260509132453 | 58 | 206 | 1.0 | 2.0 | 0.00 | 0.00 | 0.00 | 84 | 1008.8 |
| 20260509132123 | 57 | 163 | 1.0 | 7.0 | 0.00 | 0.00 | 0.00 | 81 | 1010.4 |
| 20260509131950 | 58 | 196 | 2.0 | 3.0 | 0.00 | 0.00 | 0.00 | 84 | 1008.9 |
| 20260509131623 | 57 | 127 | 0.0 | 7.0 | 0.00 | 0.00 | 0.00 | 83 | 1010.3 |
| 20260509131447 | 58 | 139 | 2.0 | 2.0 | 0.00 | 0.00 | 0.00 | 86 | 1008.9 |
| 20260509131123 | 56 | 19 | 0.0 | 2.0 | 0.00 | 0.00 | 0.00 | 85 | 1010.3 |
| 20260509130943 | 57 | 66 | 1.0 | 2.0 | 0.00 | 0.00 | 0.00 | 87 | 1008.7 |
| 20260509130623 | 56 | 32 | 0.0 | 2.0 | 0.00 | 0.00 | 0.00 | 85 | 1010.3 |
| 20260509130438 | 57 | 90 | 3.0 | 4.0 | 0.00 | 0.00 | 0.00 | 89 | 1008.8 |
| 20260509130124 | 56 | 63 | 0.0 | 0.0 | 0.00 | 0.00 | 0.00 | 85 | 1010.4 |
| 20260509125936 | 57 | 99 | 2.0 | 3.0 | 0.00 | 0.00 | 0.00 | 89 | 1008.7 |
| 20260509125624 | 55 | 63 | 0.0 | 0.0 | 0.00 | 0.00 | 0.00 | 85 | 1010.4 |
| 20260509125432 | 56 | 90 | 0.0 | 2.0 | 0.00 | 0.00 | 0.00 | 89 | 1008.9 |
| 20260509125118 | 55 | 63 | 0.0 | 0.0 | 0.00 | 0.00 | 0.00 | 85 | 1010.2 |
| 20260509124928 | 55 | 121 | 2.0 | 3.0 | 0.00 | 0.00 | 0.00 | 89 | 1008.8 |
| 20260509124617 | 55 | 63 | 0.0 | 0.0 | 0.00 | 0.00 | 0.00 | 86 | 1010.2 |
| 20260509124426 | 55 | 106 | 3.0 | 3.0 | 0.00 | 0.00 | 0.00 | 89 | 1008.6 |
| 20260509124115 | 55 | 63 | 0.0 | 0.0 | 0.00 | 0.00 | 0.00 | 86 | 1010.2 |
| 20260509123923 | 55 | 95 | 2.0 | 3.0 | 0.00 | 0.00 | 0.00 | 89 | 1008.6 |
| 20260509123618 | 54 | 62 | 0.0 | 0.0 | 0.00 | 0.00 | 0.00 | 87 | 1010.3 |
| 20260509123420 | 55 | 78 | 2.0 | 2.0 | 0.00 | 0.00 | 0.00 | 90 | 1008.9 |
| 20260509123115 | 54 | 62 | 0.0 | 0.0 | 0.00 | 0.00 | 0.00 | 87 | 1010.3 |
| 20260509122916 | 55 | 103 | 3.0 | 3.0 | 0.00 | 0.00 | 0.00 | 91 | 1008.8 |
| 20260509122618 | 53 | 62 | 0.0 | 0.0 | 0.00 | 0.00 | 0.00 | 87 | 1010.4 |
| 20260509122413 | 55 | 84 | 2.0 | 3.0 | 0.00 | 0.00 | 0.00 | 91 | 1008.8 |
| 20260509122116 | 53 | 62 | 0.0 | 0.0 | 0.00 | 0.00 | 0.00 | 88 | 1010.4 |
| 20260509121910 | 54 | 80 | 2.0 | 3.0 | 0.00 | 0.00 | 0.00 | 92 | 1008.8 |
| 20260509121613 | 53 | 62 | 0.0 | 0.0 | 0.00 | 0.00 | 0.00 | 88 | 1010.4 |
| 20260509121407 | 54 | 90 | 2.0 | 3.0 | 0.00 | 0.00 | 0.00 | 93 | 1008.7 |
| 20260509121114 | 53 | 62 | 0.0 | 0.0 | 0.00 | 0.00 | 0.00 | 88 | 1010.4 |
| 20260509120905 | 53 | 68 | 2.0 | 3.0 | 0.00 | 0.00 | 0.00 | 92 | 1008.9 |
| 20260509120558 | 53 | 62 | 0.0 | 0.0 | 0.00 | 0.00 | 0.00 | 88 | 1010.4 |
| 20260509120405 | 52 | 62 | 0.0 | 0.0 | 0.00 | 0.00 | 0.00 | 88 | 1010.3 |
| 20260509120402 | 53 | 94 | 2.0 | 3.0 | 0.00 | 0.00 | 0.00 | 93 | 1008.9 |
| 20260509120115 | 53 | 62 | 0.0 | 0.0 | 0.00 | 0.00 | 0.00 | 89 | 1010.3 |
| 20260509115900 | 53 | 90 | 3.0 | 3.0 | 0.00 | 0.00 | 0.00 | 93 | 1008.6 |
| 20260509115357 | 53 | 90 | 3.0 | 3.0 | 0.00 | 0.00 | 0.00 | 93 | 1008.8 |
| 20260509115051 | 52 | 62 | 0.0 | 0.0 | 0.00 | 0.00 | 0.00 | 89 | 1010.3 |
| 20260509114855 | 53 | 102 | 2.0 | 3.0 | 0.00 | 0.00 | 0.00 | 94 | 1008.8 |
| 20260509114553 | 52 | 62 | 0.0 | 0.0 | 0.00 | 0.00 | 0.00 | 89 | 1010.3 |
| 20260509114353 | 52 | 110 | 2.0 | 3.0 | 0.00 | 0.00 | 0.00 | 94 | 1008.7 |
| 20260509114052 | 52 | 62 | 0.0 | 0.0 | 0.00 | 0.00 | 0.00 | 89 | 1010.3 |
| 20260509113852 | 52 | 102 | 2.0 | 3.0 | 0.00 | 0.00 | 0.00 | 94 | 1008.6 |
| 20260509113552 | 52 | 62 | 0.0 | 0.0 | 0.00 | 0.00 | 0.00 | 89 | 1010.2 |
| 20260509113349 | 52 | 90 | 2.0 | 2.0 | 0.00 | 0.00 | 0.00 | 95 | 1008.6 |
| 20260509113050 | 52 | 62 | 0.0 | 0.0 | 0.00 | 0.00 | 0.00 | 89 | 1010.2 |
| 20260509112846 | 52 | 90 | 2.0 | 3.0 | 0.00 | 0.00 | 0.00 | 95 | 1008.6 |
| 20260509112544 | 52 | 62 | 0.0 | 0.0 | 0.00 | 0.00 | 0.00 | 89 | 1010.2 |
| 20260509112343 | 52 | 90 | 2.0 | 3.0 | 0.00 | 0.00 | 0.00 | 95 | 1008.7 |
| 20260509112046 | 52 | 62 | 0.0 | 0.0 | 0.00 | 0.00 | 0.00 | 89 | 1010.2 |
| 20260509111840 | 52 | 94 | 3.0 | 3.0 | 0.00 | 0.00 | 0.00 | 95 | 1008.6 |
| 20260509111545 | 52 | 62 | 0.0 | 0.0 | 0.00 | 0.00 | 0.00 | 89 | 1010.3 |
| 20260509111337 | 52 | 99 | 2.0 | 3.0 | 0.00 | 0.00 | 0.00 | 95 | 1008.8 |
| 20260509111126 | 51 | 62 | 0.0 | 0.0 | 0.00 | 0.00 | 0.00 | 89 | 1010.2 |
| 20260509111116 | 52 | 62 | 0.0 | 0.0 | 0.00 | 0.00 | 0.00 | 89 | 1010.2 |
| 20260509110835 | 52 | 90 | 2.0 | 2.0 | 0.00 | 0.00 | 0.00 | 94 | 1008.7 |
| 20260509110330 | 52 | 90 | 2.0 | 2.0 | 0.00 | 0.00 | 0.00 | 94 | 1008.4 |
| 20260509110057 | 51 | 62 | 0.0 | 0.0 | 0.00 | 0.00 | 0.00 | 89 | 1010.1 |
| 20260509105828 | 51 | 90 | 2.0 | 2.0 | 0.00 | 0.00 | 0.00 | 94 | 1008.5 |
| 20260509105531 | 51 | 62 | 0.0 | 0.0 | 0.00 | 0.00 | 0.00 | 89 | 1010.2 |
| 20260509105327 | 51 | 85 | 2.0 | 3.0 | 0.00 | 0.00 | 0.00 | 94 | 1008.4 |
| 20260509105030 | 51 | 62 | 0.0 | 0.0 | 0.00 | 0.00 | 0.00 | 89 | 1010.2 |
| 20260509104823 | 51 | 90 | 2.0 | 3.0 | 0.00 | 0.00 | 0.00 | 94 | 1008.4 |
| 20260509104530 | 51 | 62 | 0.0 | 0.0 | 0.00 | 0.00 | 0.00 | 88 | 1010.1 |
| 20260509104320 | 51 | 101 | 3.0 | 3.0 | 0.00 | 0.00 | 0.00 | 94 | 1008.4 |
| 20260509104029 | 51 | 62 | 0.0 | 0.0 | 0.00 | 0.00 | 0.00 | 88 | 1010.0 |